Weather in Guli

Russia / Republic of Ingushetia     42°48′41″N   44°48′14″E
temp.,
°C
wind,
m/s
gust,
m/s
humid.,
%
clouds,
%
prec.,
mm/h
press.,
hPa
HPBL,
m
12 august, fri
fri1200:00+10s578914 0.0 1017124
03:00+10s569232 0.0 1017126
06:00+11s568736 0.0 1017246
09:00+17s24600 0.0 1015868
12:00+18se136217 0.8 10151039
15:00+17ne126539 2.6 10151060
18:00+15ssw12774 1.4 1016230
21:00+10s458420 1.7 101970
13 august, sat
sat1300:00+10s56793 0.0 1018100
03:00+9s56741 0.0 1018121
06:00+10s56763 0.0 1018137
09:00+17s34502 0.0 1014743
12:00+19sse24420 0.0 10131060
15:00+19s13430 0.0 10121122
18:00+15s24590 0.0 1014183
21:00+10s67520 0.0 1016119
14 august, sun
sun1400:00+10s67490 0.0 1015124
03:00+10s68521 0.0 1015137
06:00+10s68590 0.0 1014148
09:00+18s56430 0.0 1010460
12:00+22s35350 0.0 1009853
15:00+21s24380 0.0 1010804
18:00+16s34590 0.0 1012144
21:00+12s56560 0.0 101572
15 august, mon
mon1500:00+11s56520 0.0 101578
03:00+11s56510 0.0 101479
06:00+12s56540 0.0 101486
09:00+21s46390 0.0 1010464
12:00+23s35370 0.0 1010916
15:00+23s45380 0.0 1010927
18:00+18s57560 0.0 1013211
21:00+13s78510 0.0 1016144
16 august, tue
tue1600:00+13s79480 0.0 1016149
03:00+12s68510 0.0 1016111
06:00+13s67570 0.0 1017103
09:00+21s35400 0.0 1014469
12:00+23s24370 0.0 1013885
15:00+22s13400 0.0 1014968
18:00+18s23620 0.0 101659
21:00+14s55540 0.0 101956